Regional Weather Roundup
Issued by NWS

Home | Current Version | Previous Version | Text Only | Print | Product List | Glossary On
Versions: 1 2 3 4 5 6 7 8 9 10 11 12 13 14 15 16 17 18 19 20 21 22 23 24 25 26 27 28 29 30 31 32 33 34 35 36 37 38 39 40 41 42 43 44 45 46 47 48 49 50
000
ASUS44 KOUN 240210
RWROK

WEATHER ROUNDUP FOR OKLAHOMA
NATIONAL WEATHER SERVICE NORMAN OK
900 PM CDT THU MAR 23 2017

NOTE: "FAIR" INDICATES FEW OR NO CLOUDS BELOW 12,000 FEET WITH NO
      SIGNIFICANT WEATHER AND/OR OBSTRUCTIONS TO VISIBILITY.

OKZ001>007-009>012-014-015-017-240300-
NORTHWEST OKLAHOMA AND THE PANHANDLE

CITY           SKY/WX    TMP DP  RH WIND       PRES   REMARKS
GAGE           MOCLDY    75  42  30 S30G43    29.59R
GUYMON         CLOUDY    65  56  72 S20G32    29.53F
ENID/WOODRING  MOCLDY    75  48  38 SE23G33   29.68R
$$

OKZ016-021>023-033>039-044-045-240300-
SOUTHWEST OKLAHOMA

CITY           SKY/WX    TMP DP  RH WIND       PRES   REMARKS
LAWTON/REGL    CLEAR     76  45  33 SE23G36   29.71F
LAWTON/FT SILL CLEAR     75  47  37 S24G33    29.71S
FREDERICK      CLEAR     76  47  35 SE24G36   29.66F
CLINTON        CLEAR     74  43  32 S30G41    29.66S
HOBART         CLEAR     75  45  34 S28G38    29.67R
ALTUS AFB      CLEAR     75  42  30 SE28G38   29.67R
$$

OKZ018>020-024>031-240300-
CENTRAL OKLAHOMA

CITY           SKY/WX    TMP DP  RH WIND       PRES   REMARKS
OKLAHOMA CITY  PTCLDY    74  45  35 S28G37    29.74F
OKC/WILEY POST CLEAR     76  46  34 S28G40    29.72F
OKC/TINKER AFB CLEAR     74  49  41 S20G25    29.73F
STILLWATER     CLEAR     76  47  35 S26G44    29.72F
GUTHRIE        CLEAR     76  45  33 S22G37    29.70F
$$

OKZ008-013-054>072-240300-
NORTHEAST OKLAHOMA

CITY           SKY/WX    TMP DP  RH WIND       PRES   REMARKS
TULSA          PTCLDY    77  50  38 S18G26    29.79F
TULSA/JONES    CLEAR     77  48  35 S14G24    29.80F
PONCA CITY     CLEAR     76  47  35 S24G33    29.70F
BARTLESVILLE   CLEAR     75  48  38 S17G25    29.78F
MUSKOGEE       CLEAR     75  49  39 S15G24    29.87S
$$

OKZ032-040>043-046>053-073>077-240300-
SOUTH CENTRAL/SOUTHEAST OKLAHOMA

CITY           SKY/WX    TMP DP  RH WIND       PRES   REMARKS
ARDMORE/DWNTWN CLOUDY    75  43  31 S16G25    29.84R
MCALESTER      PTCLDY    78  49  35 S8G18     29.87S
$$




USA.gov is the U.S. government's official web portal to all federal, state and local government web resources and services.